x

South Uist Range (03023) Weather Station

3:00am - Fri 24th Feb 2017 All times are GMT.

  • Wind
    17mph, 29mph gusts
  • 空気 Temp 41°f
  • Sea Pressure 1008mb
  • South Uist Range
  • South Uist Range

More Historic Weather Station data

Upgrade to MSW Pro to gain access to the past 30 days of data for over 8000 Wavebouys and Weather Stations around the globe.

Join Pro

Comparision Forecast

View Surf forecast
   
Fri 02/24 3:00am 17 29 mph 1008mb 41f
2:00am 24 38 mph 1007mb 40f
1:00am 22 37 mph 1005mb 40f
12:00am 23 37 mph 1005mb 42f
Thu 02/23 11:00pm 25 34 mph 1004mb 42f
10:00pm 22 40 mph 1003mb 41f
9:00pm 23 36 mph 1002mb 41f
8:00pm 22 40 mph 1001mb 40f
7:00pm 16
mph
1000mb 40f
6:00pm 14
mph
999mb 39f
5:00pm 14
mph
998mb 41f
4:00pm 13
mph
997mb 40f
3:00pm 14
mph
996mb 42f
2:00pm 18
mph
996mb 41f
1:00pm 22 29 mph 995mb 41f
12:00pm 19
mph
994mb 42f
11:00am 11
mph
993mb 43f
Wed 02/22 11:00am 31 43 mph 998mb 44f
10:00am 31 46 mph 997mb 44f
9:00am 26 45 mph 997mb 44f
8:00am 33 48 mph 996mb 44f
7:00am 32 53 mph 996mb 44f
6:00am 34 49 mph 995mb 44f
5:00am 36 52 mph 995mb 45f
4:00am 37 53 mph 995mb 44f
3:00am 33 57 mph 995mb 44f
2:00am 40 57 mph 995mb 43f
1:00am 37 54 mph 995mb 45f
12:00am 37 53 mph 995mb 45f
Tue 02/21 11:00pm 33 49 mph 995mb 45f
10:00pm 37 48 mph 994mb 44f
9:00pm 29 52 mph 994mb 43f
8:00pm 32 44 mph 993mb 45f
7:00pm 31 43 mph 993mb 46f
6:00pm 26 48 mph 992mb 46f
5:00pm 34 46 mph 992mb 49f
4:00pm 28 36 mph 992mb 49f
3:00pm 29 36 mph 994mb 49f
2:00pm 28 34 mph 996mb 50f
1:00pm 26 38 mph 997mb 49f
12:00pm 29 40 mph 998mb 48f
11:00am 31 40 mph 999mb 48f
10:00am 29 36 mph 1001mb 48f
9:00am 26 32 mph 1003mb 47f
8:00am 23 32 mph 1004mb 47f
7:00am 23 29 mph 1005mb 46f
6:00am 22 30 mph 1007mb 46f
5:00am 16
mph
1008mb 46f
4:00am 18
mph
1009mb 47f
3:00am 19
mph
1010mb 46f
2:00am 22 29 mph 1010mb 46f
1:00am 23 29 mph 1010mb 47f
12:00am 16
mph
1010mb 44f
Mon 02/20 11:00pm 21 38 mph 1010mb 44f
10:00pm 24 31 mph 1010mb 46f
9:00pm 25 37 mph 1010mb 46f
8:00pm 15 36 mph 1010mb 45f
7:00pm 19 43 mph 1010mb 45f
6:00pm 23 36 mph 1010mb 46f
5:00pm 19 31 mph 1010mb 47f
4:00pm 23 40 mph 1010mb 47f
3:00pm 24 34 mph 1010mb 49f
2:00pm 29 39 mph 1009mb 48f
1:00pm 25 49 mph 1009mb 47f
12:00pm 21 29 mph 1009mb 50f
11:00am 21 30 mph 1009mb 49f
10:00am 19
mph
1008mb 49f
8:00am 25 38 mph 1006mb 49f
7:00am 28 38 mph 1005mb 50f
6:00am 30 39 mph 1005mb 50f
5:00am 31 39 mph 1005mb 50f